Location: Bonningues
(50.7927°N, 2.0150°E)
Time: 03:14:28
(UTC+00:00)

Cosmos 1707 Rocket - Pass Details

Date: 08 August 2020
Orbit: 605 x 632 km, 82.5° (Epoch: 25 September)

Event Time Altitude Azimuth Distance (km) Brightness Sun altitude
Rises 21:01:54 0° 344° (NNW) 2,891 8.2 -13.1°
Reaches altitude 10° 21:04:12 10° 339° (NNW) 1,977 7.3 -13.4°
Maximum altitude 21:08:22 45° 267° (W) 833 4.5 -13.8°
Drops below altitude 10° 21:12:29 10° 194° (SSW) 1,952 5.8 -14.3°
Enters shadow 21:12:50 - 193° (SSW) 2,090 5.9 -14.3°
